{"data":{"norad_id":41857,"intl_designator":"2016-068A","name":"YUNHAI-1 01","alt_names":[],"object_type":"PAYLOAD","status":"ACTIVE","operator":null,"country":"PRC","launch_date":"2016-11-11","launch_site_code":"JSC","launch_vehicle":null,"mission":null,"orbit_class":"UNKNOWN","rcs_meters":4.241,"size_class":null,"mass_kg":null,"dimensions":null,"purposes":[],"wikipedia_slug":null,"has_3d_model":false,"image_url":null,"decayed_at":null,"tle_current":{"epoch":"2026-05-25T04:32:57.451776Z","epoch_age_seconds":52535,"freshness":"FRESH","line1":"1 41857U 16068A   26145.18955384  .00000332  00000+0  13804-3 0  9993","line2":"2 41857  98.5843 156.4112 0006497  98.4536 261.7384 14.32688099498535","mean_motion":14.32688099,"eccentricity":0.0006497,"inclination_deg":98.5843,"raan_deg":156.4112,"arg_perigee_deg":98.4536,"mean_anomaly_deg":261.7384,"bstar":0.00013804,"rev_number":49853,"period_min":100.51036237441,"perigee_km":778.10721510339,"apogee_km":787.41208420995,"semimajor_km":7160.8966496567,"source":"CELESTRAK","updated_at":"2026-05-25T13:37:55.650201Z"}}}